[[{"header":{"parameterUnit":"m.s-1","parameterCategory":1,"la1":30.2991,"la2":30.254,"lo1":-89.0895,"lo2":-89.0444,"dy":0.0017,"dx":0.0017,"nx":28,"ny":28,"refTime":"2023-09-26T03:00:00:Z","depth":0,"parameterNumber":2,"parameterNumberName":"U-component_of_WINDS"},"data":[0,0,0,0,0,0,0,0,0,0,0,0,0,0,0,0,0,0,0,0,0,0,0,0,0,0,0,0,0,0,0,0,0,0,0,0,0,0,0,0,0,0,0,0,0,0,0,0,0,0,0,0,0,0,0,0,0,0,-1.9971,-1.9972,0,-2.0029,-2.0029,-2.003,-1.997,-1.9968,-1.9966,-1.9963,-2.0023,-2.0027,-2.003,0,0,0,0,0,0,0,0,0,0,0,0,0,-1.9809,-1.9812,-1.9971,-1.9972,-1.9972,-2.0029,-2.0029,-2.003,-1.9971,-1.9968,-1.9965,-1.9962,-2.0022,-2.0026,-2.0031,0,0,0,0,0,0,0,0,0,0,0,0,0,-1.9874,-1.9813,-1.9971,-1.9949,-1.9948,-2.0028,-2.0029,-2.003,-1.9971,-1.9968,-1.9964,-1.9961,-2.002,-2.0026,-2.0031,-2.0136,0,0,-2.0048,-2.0051,0,0,0,0,0,0,0,0,-1.9871,-1.988,-1.9952,-1.9951,-1.995,-1.9989,-1.9994,-2.0066,-1.9972,-1.9962,-1.9963,-1.9959,-2.0014,-2.002,-2.0039,-2.0138,-2.0141,-2.0049,-2.0052,-2.0055,-2.0056,0,0,0,0,0,0,0,-1.9866,-1.9877,-1.9994,-1.9953,-1.9952,-1.9937,-1.9942,-2.0007,-2.0007,-1.9963,-1.9959,-1.9966,-2.0013,-2.0033,-2.004,-2.0142,-2.0049,-2.0054,-2.0057,-2.0059,-2.033,-2.0334,0,0,0,0,0,0,-1.9864,-1.9874,-1.9992,-1.9995,-1.9901,-1.9943,-1.9949,-1.998,-2.0006,-2.0007,-1.9969,-1.9963,-2.0026,-2.0033,-2.0042,-2.0166,-2.0055,-2.006,-2.0063,-2.0326,-2.0331,-2.0335,0,0,0,0,0,0,-1.9861,-1.9875,-1.999,-1.9934,-1.9947,-1.9949,-1.9984,-1.9983,-2.0003,-2.0011,-2.0011,-1.999,-2.0023,-2.0034,-2.0113,-2.0167,-2.0062,-2.0068,-2.0322,-2.0328,-2.0333,-2.0416,0,0,0,0,0,0,-1.9856,-1.9874,-1.9914,-1.9935,-1.995,-2.006,-1.9988,-1.9986,-2.0013,-2.0006,-2.0031,-2.0031,-2.0021,-2.0105,-2.0118,-2.0173,-2.0072,-2.0317,-2.0325,-2.0331,-2.0408,-2.0423,-2.0437,0,0,0,0,0,-1.9851,-1.9935,-1.9916,-1.9931,-2.0,-2.0063,-2.0072,-2.0058,-2.0017,-2.0057,-2.0063,-2.0031,-2.0159,-2.0113,-2.0128,-2.0185,-2.0314,-2.0322,-2.0331,-2.0402,-2.042,-2.0436,0,0,0,0,0,0,-1.9921,-1.9937,-1.9917,-2.001,-2.0036,-2.0053,-2.0103,-2.0079,-2.0117,-2.0108,-2.009,-2.0096,-2.018,-2.019,-2.0139,-2.0288,-2.0229,-2.0241,-2.0278,-2.0296,-2.031,-2.0306,-2.0077,0,0,0,0,0,-1.9947,-1.9997,-2.0009,-2.009,-2.0104,-2.0102,-2.0128,-2.0116,-2.0141,-2.0152,-2.0163,-2.0189,-2.0235,-2.0266,-2.0309,-2.0409,-2.0414,-2.0455,-2.047,-2.0481,-2.0492,-2.0546,-2.0565,-2.0363,-2.0363,-2.0363,0,0,-2.0002,-2.0017,-2.005,-2.0104,-2.0123,-2.0175,-2.0111,-2.0169,-2.0208,-2.0161,-2.0236,-2.0245,-2.0273,-2.0363,-2.0403,-2.0375,-2.0549,-2.0492,-2.0502,-2.0506,-2.0557,-2.0576,-2.0593,-2.0369,-2.0368,-2.0367,0,0,-2.0128,-2.0145,-2.0215,-2.0234,-2.0262,-2.026,-2.0277,-2.0298,-2.0302,-2.0378,-2.0344,-2.0389,-2.0469,-2.049,-2.0512,-2.0646,-2.0618,-2.0661,-2.0736,-2.0789,-2.0804,-2.0818,-2.0867,-2.0885,-2.0671,-2.0671,-2.0672,0,-2.0193,-2.027,-2.0253,-2.0314,-2.0339,-2.0299,-2.037,-2.0389,-2.043,-2.0449,-2.0415,-2.0515,-2.0531,-2.0625,-2.0658,-2.0677,-2.0696,-2.0658,-2.0803,-2.0817,-2.083,-2.0876,-2.0895,-2.0676,-2.0676,-2.0675,-2.0675,0,-2.0349,-2.0403,-2.0456,-2.0497,-2.0528,-2.0593,-2.0586,-2.0619,-2.0604,-2.0605,-2.0682,-2.07,-2.0746,-2.0767,-2.0752,-2.086,-2.0841,-2.0806,-2.0747,-2.0855,-2.0898,-2.0915,-2.0684,-2.0682,-2.068,-2.0679,0,0,-2.0522,-2.0552,-2.0572,-2.059,-2.0618,-2.066,-2.0723,-2.0768,-2.0797,-2.0827,-2.088,-2.0948,-2.0915,-2.094,-2.0927,-2.0973,-2.108,-2.0932,-2.0933,-2.096,-2.12,-2.1227,-2.1248,-2.1061,-2.1064,-2.1067,-2.1198,0,-2.065,-2.076,-2.0747,-2.0852,-2.0902,-2.0865,-2.092,-2.0943,-2.0946,-2.0989,-2.0991,-2.104,-2.0994,-2.1008,-2.1052,-2.1057,-2.1128,-2.1047,-2.111,-2.1113,-2.1106,-2.127,-2.1299,-2.1422,-2.1214,-2.1217,-2.1219,0,-2.0815,-2.085,-2.0961,-2.0981,-2.1002,-2.1052,-2.1092,-2.1133,-2.1158,-2.1157,-2.1184,-2.1163,-2.1227,-2.1166,-2.1254,-2.1199,-2.1224,-2.123,-2.1235,-2.1241,-2.1173,-2.1282,-2.1461,-2.148,-2.1246,-2.1243,-2.1242,0,-2.0931,-2.1006,-2.1082,-2.1099,-2.1124,-2.1161,-2.1173,-2.1195,-2.1223,-2.1257,-2.1275,-2.1317,-2.134,-2.1373,-2.1364,-2.132,-2.1454,-2.1392,-2.1455,-2.1455,-2.1486,-2.1484,-2.1672,-2.15,-2.15,-2.1499,-2.1499,0,-2.1076,-2.1146,-2.1135,-2.1182,-2.1259,-2.1242,-2.1318,-2.1326,-2.1346,-2.1393,-2.1363,-2.1408,-2.1393,-2.1437,-2.143,-2.1504,-2.1515,-2.1516,-2.1513,-2.1519,-2.1519,-2.1536,-2.1528,-2.1504,-2.1503,-2.1502,-2.1501,0,-2.122,-2.1215,-2.1296,-2.1313,-2.1319,-2.1375,-2.139,-2.1434,-2.1434,-2.1495,-2.1508,-2.1509,-2.156,-2.1553,-2.161,-2.1605,-2.1697,-2.1684,-2.1689,-2.1686,-2.175,-2.1745,-2.1957,-2.1984,-2.1793,-2.1795,-2.1796,0,-2.1313,-2.1366,-2.1389,-2.1419,-2.1434,-2.1482,-2.151,-2.1496,-2.1526,-2.1559,-2.16,-2.1647,-2.1685,-2.1768,-2.1774,-2.1817,-2.1805,-2.1876,-2.1811,-2.1816,-2.1807,-2.1805,-2.181,-2.1889,-2.1892,-2.1893,-2.1895,0,-2.148,-2.1475,-2.1517,-2.1559,-2.1593,-2.1625,-2.1653,-2.168,-2.1668,-2.1704,-2.1755,-2.1785,-2.1842,-2.1891,-2.1932,-2.1944,-2.1918,-2.1915,-2.1932,-2.1939,-2.194,-2.1941,-2.1725,-2.191,-2.1909,-2.1908,-2.1907,-2.1906,-2.1602,-2.1647,-2.1671,-2.1718,-2.1738,-2.1766,-2.1808,-2.1813,-2.1856,-2.1902,-2.1891,-2.195,-2.1973,-2.2025,-2.2042,-2.2088,-2.2062,-2.2086,-2.2093,-2.2099,-2.2107,-2.1932,-2.2095,-2.2094,-2.2094,-2.2094,-2.2093,0,-2.1768,-2.1781,-2.1825,-2.1866,-2.1904,-2.1875,-2.1905,-2.1939,-2.1991,-2.2015,-2.2053,-2.2112,-2.2159,-2.2168,-2.2212,-2.2247,-2.2236,-2.2259,-2.2257,-2.2261,-2.2127,-2.2109,-2.2267,-2.2267,-2.2267,-2.2267,-2.2267,-2.2267,-2.1859,-2.1934,-2.1932,-2.2016,-2.2028,-2.2086,-2.2106,-2.2131,-2.215,-2.2218,-2.2257,-2.2262,-2.228,-2.2326,-2.2367,-2.2368,-2.2387,-2.2415,-2.2412,-2.2287,-2.227,-2.2253,-2.2236,-2.2418,-2.2419,-2.2541,-2.2542,-2.2543]},{"header":{"parameterUnit":"m.s-1","parameterCategory":1,"la1":30.2991,"la2":30.254,"lo1":-89.0895,"lo2":-89.0444,"dy":0.0017,"dx":0.0017,"nx":28,"ny":28,"refTime":"2023-09-26T03:00:00:Z","depth":0,"parameterNumber":3,"parameterNumberName":"V-component_of_WINDS"},"data":[0,0,0,0,0,0,0,0,0,0,0,0,0,0,0,0,0,0,0,0,0,0,0,0,0,0,0,0,0,0,0,0,0,0,0,0,0,0,0,0,0,0,0,0,0,0,0,0,0,0,0,0,0,0,0,0,0,0,-2.6402,-2.6403,0,-2.6487,-2.6487,-2.6488,-2.6475,-2.6474,-2.6473,-2.6471,-2.6555,-2.6558,-2.6562,0,0,0,0,0,0,0,0,0,0,0,0,0,-2.6227,-2.6231,-2.6402,-2.6403,-2.6404,-2.6486,-2.6488,-2.6489,-2.6476,-2.6474,-2.6472,-2.6471,-2.6554,-2.6558,-2.6562,0,0,0,0,0,0,0,0,0,0,0,0,0,-2.6307,-2.6232,-2.6402,-2.6408,-2.6409,-2.6486,-2.6488,-2.6489,-2.6476,-2.6474,-2.6472,-2.647,-2.6552,-2.6558,-2.6563,-2.6639,0,0,-2.6579,-2.6582,0,0,0,0,0,0,0,0,-2.6302,-2.6313,-2.6406,-2.6408,-2.6409,-2.6468,-2.6457,-2.6539,-2.6477,-2.6451,-2.6471,-2.6469,-2.6528,-2.6535,-2.6555,-2.6643,-2.6646,-2.658,-2.6583,-2.6585,-2.6587,0,0,0,0,0,0,0,-2.6297,-2.6309,-2.6435,-2.6407,-2.6409,-2.6405,-2.6414,-2.6472,-2.65,-2.6453,-2.6452,-2.6462,-2.6528,-2.655,-2.6557,-2.6647,-2.658,-2.6584,-2.6588,-2.659,-2.6801,-2.6803,0,0,0,0,0,0,-2.629,-2.6305,-2.6433,-2.6438,-2.6349,-2.641,-2.642,-2.6451,-2.6499,-2.6505,-2.6464,-2.6461,-2.6542,-2.6551,-2.656,-2.6652,-2.6585,-2.659,-2.6593,-2.6798,-2.6801,-2.6804,0,0,0,0,0,0,-2.6286,-2.6301,-2.6429,-2.6371,-2.6387,-2.6416,-2.6451,-2.6454,-2.6476,-2.6508,-2.6513,-2.6482,-2.6541,-2.6553,-2.6619,-2.6655,-2.6593,-2.6597,-2.6796,-2.6799,-2.6803,-2.6836,0,0,0,0,0,0,-2.6281,-2.63,-2.633,-2.6372,-2.639,-2.6488,-2.6453,-2.6457,-2.6486,-2.6483,-2.6526,-2.6531,-2.654,-2.6612,-2.6625,-2.6661,-2.6602,-2.6792,-2.6797,-2.6801,-2.6832,-2.6841,-2.6848,0,0,0,0,0,-2.6275,-2.6335,-2.6331,-2.6347,-2.6428,-2.649,-2.6501,-2.6511,-2.6489,-2.6518,-2.6539,-2.6529,-2.6649,-2.6618,-2.6633,-2.6672,-2.679,-2.6796,-2.6801,-2.6829,-2.6839,-2.6848,0,0,0,0,0,0,-2.6296,-2.6341,-2.6337,-2.6413,-2.6448,-2.6488,-2.6526,-2.6521,-2.6563,-2.6558,-2.6569,-2.6578,-2.6646,-2.6665,-2.6631,-2.6747,-2.6716,-2.6725,-2.6732,-2.6742,-2.675,-2.6744,-2.6606,0,0,0,0,0,-2.6309,-2.6357,-2.6393,-2.6457,-2.6475,-2.6497,-2.6524,-2.653,-2.6566,-2.658,-2.6605,-2.664,-2.6685,-2.6715,-2.6758,-2.6835,-2.6844,-2.6869,-2.6876,-2.6883,-2.689,-2.6932,-2.6943,-2.6822,-2.6822,-2.6822,0,0,-2.6337,-2.6368,-2.6397,-2.6462,-2.6489,-2.6537,-2.651,-2.6561,-2.6597,-2.6588,-2.6653,-2.6672,-2.6711,-2.6784,-2.6817,-2.6802,-2.6926,-2.689,-2.6894,-2.6898,-2.6939,-2.695,-2.696,-2.6825,-2.6825,-2.6824,0,0,-2.6413,-2.6441,-2.6497,-2.6526,-2.6568,-2.6583,-2.6596,-2.6637,-2.665,-2.6716,-2.671,-2.6752,-2.683,-2.6858,-2.6883,-2.6969,-2.6962,-2.6983,-2.7024,-2.7065,-2.7075,-2.7083,-2.7114,-2.7125,-2.699,-2.699,-2.6991,0,-2.6442,-2.6515,-2.6526,-2.6579,-2.6608,-2.6602,-2.6659,-2.6686,-2.674,-2.6759,-2.6742,-2.684,-2.6866,-2.6945,-2.6966,-2.6986,-2.7001,-2.6978,-2.7072,-2.7081,-2.7089,-2.7119,-2.713,-2.6993,-2.6992,-2.6992,-2.6992,0,-2.6549,-2.66,-2.664,-2.6694,-2.6727,-2.6781,-2.6799,-2.6831,-2.6833,-2.685,-2.6916,-2.6947,-2.6997,-2.7016,-2.7018,-2.7095,-2.7085,-2.707,-2.7039,-2.7103,-2.7131,-2.7142,-2.6996,-2.6995,-2.6995,-2.6994,0,0,-2.664,-2.67,-2.6714,-2.6738,-2.6785,-2.6824,-2.6878,-2.6928,-2.6955,-2.6992,-2.7037,-2.7103,-2.709,-2.7118,-2.7124,-2.7159,-2.7226,-2.714,-2.7141,-2.7155,-2.7313,-2.7323,-2.7336,-2.7222,-2.7224,-2.7226,-2.7309,0,-2.672,-2.6817,-2.6828,-2.6914,-2.6961,-2.6956,-2.7003,-2.7036,-2.7053,-2.7095,-2.7112,-2.7159,-2.7138,-2.7155,-2.7191,-2.7211,-2.7258,-2.7205,-2.7263,-2.7265,-2.7254,-2.7351,-2.7363,-2.744,-2.732,-2.7322,-2.7323,0,-2.6827,-2.6869,-2.6959,-2.7,-2.702,-2.7062,-2.7108,-2.7148,-2.7186,-2.7195,-2.7227,-2.7228,-2.7282,-2.7249,-2.7325,-2.7288,-2.7313,-2.7326,-2.733,-2.7335,-2.7298,-2.7359,-2.7465,-2.7477,-2.7341,-2.7339,-2.7338,0,-2.6884,-2.6963,-2.7027,-2.7048,-2.7097,-2.7127,-2.7148,-2.7184,-2.7213,-2.7253,-2.7272,-2.7318,-2.7343,-2.7378,-2.7391,-2.7365,-2.7465,-2.7433,-2.7474,-2.7474,-2.7496,-2.7494,-2.7607,-2.7512,-2.7511,-2.7511,-2.7511,0,-2.6972,-2.7028,-2.7053,-2.7093,-2.7155,-2.7167,-2.7228,-2.7248,-2.728,-2.7322,-2.7321,-2.7361,-2.7376,-2.7418,-2.7428,-2.7489,-2.75,-2.7509,-2.7511,-2.7509,-2.7508,-2.7525,-2.752,-2.7514,-2.7514,-2.7513,-2.7512,0,-2.7047,-2.7066,-2.7136,-2.7177,-2.7188,-2.7232,-2.7267,-2.7305,-2.7321,-2.7375,-2.7388,-2.7414,-2.7463,-2.748,-2.754,-2.7546,-2.7617,-2.7615,-2.7605,-2.7606,-2.7646,-2.7642,-2.7773,-2.7791,-2.7684,-2.7685,-2.7686,0,-2.7102,-2.7144,-2.719,-2.7219,-2.7243,-2.7289,-2.7319,-2.7333,-2.7364,-2.741,-2.7442,-2.7492,-2.7532,-2.7612,-2.7635,-2.768,-2.7679,-2.7722,-2.7686,-2.7682,-2.7679,-2.7677,-2.7681,-2.7728,-2.773,-2.773,-2.7731,0,-2.7197,-2.7205,-2.7249,-2.7297,-2.7333,-2.7371,-2.7407,-2.7431,-2.745,-2.7485,-2.7536,-2.7567,-2.7629,-2.7678,-2.7725,-2.7746,-2.7742,-2.7742,-2.7754,-2.7753,-2.7746,-2.775,-2.7624,-2.7739,-2.7739,-2.7738,-2.7737,-2.7737,-2.7264,-2.7302,-2.734,-2.7389,-2.7418,-2.7453,-2.749,-2.7512,-2.7555,-2.7607,-2.7612,-2.7667,-2.7703,-2.7766,-2.779,-2.7832,-2.782,-2.7837,-2.7842,-2.7846,-2.7849,-2.7739,-2.7841,-2.7841,-2.784,-2.784,-2.784,0,-2.7359,-2.7384,-2.7429,-2.7481,-2.7519,-2.7513,-2.7553,-2.7586,-2.7635,-2.7669,-2.7709,-2.7768,-2.7816,-2.7843,-2.789,-2.7919,-2.7919,-2.7931,-2.7929,-2.7934,-2.7857,-2.7842,-2.7931,-2.7931,-2.7931,-2.7931,-2.7931,-2.7931,-2.7414,-2.7478,-2.749,-2.7568,-2.7592,-2.7647,-2.7671,-2.7702,-2.773,-2.7796,-2.7836,-2.7854,-2.7885,-2.7935,-2.7978,-2.7985,-2.8002,-2.8016,-2.8022,-2.7949,-2.794,-2.7931,-2.7917,-2.802,-2.802,-2.8095,-2.8096,-2.8096]}]]